Regional Weather Roundup
Issued by NWS

Home | Current Version | Previous Version | Text Only | Print | Product List | Glossary On
Versions: 1 2 3 4 5 6 7 8 9 10 11 12 13 14 15 16 17 18 19 20 21 22 23 24 25 26 27 28 29 30 31 32 33 34 35 36 37 38 39 40 41 42 43 44 45 46 47 48 49 50
000
ASUS43 KMKX 200021
RWRWI

WISCONSIN REGIONAL WEATHER ROUNDUP
NATIONAL WEATHER SERVICE MILWAUKEE/SULLIVAN WI
700 PM CDT FRI SEP 19 2014

NOTE: "FAIR" INDICATES FEW OR NO CLOUDS BELOW 12,000 FEET WITH NO
SIGNIFICANT WEATHER AND/OR OBSTRUCTIONS TO VISIBILITY.

WIZ001-002-006>008-014>016-023>028-200100-
NORTHWEST WISCONSIN

CITY           SKY/WX    TMP DP  RH WIND       PRES   REMARKS
SUPERIOR ARPT  MOCLDY    63  61  94 W7        29.63S
6HR MIN TEMP:  63; 6HR MAX TEMP:  65; 6HR PCP:  0.02;

ASHLAND        CLOUDY    66  58  75 SW7       29.65F
6HR MIN TEMP:  65; 6HR MAX TEMP:  70; 6HR PCP: TRACE;

HAYWARD        LGT RAIN  65  60  84 S13       29.65F
6HR MIN TEMP:  65; 6HR MAX TEMP:  67; 6HR PCP: TRACE;

SIREN          RAIN      65  63  93 CALM      29.68R
6HR MIN TEMP:  64; 6HR MAX TEMP:  71; 6HR PCP:  0.01;

RICE LAKE      CLOUDY    70  59  68 S9        29.71S
6HR MIN TEMP:  66; 6HR MAX TEMP:  71;

LADYSMITH      CLOUDY    69  58  69 S8        29.75S
6HR MIN TEMP:  66; 6HR MAX TEMP:  70;

EAU CLAIRE     CLOUDY    73  59  61 S14       29.72F
6HR MIN TEMP:  69; 6HR MAX TEMP:  77;

MENOMONIE      MOCLDY    74  60  63 S12       29.71S
6HR MIN TEMP:  70; 6HR MAX TEMP:  76;

NEW RICHMOND   CLOUDY    69  62  78 CALM      29.69S
6HR MIN TEMP:  69; 6HR MAX TEMP:  75;

OSCEOLA        CLOUDY    68  65  90 CALM      29.71S
6HR MIN TEMP:  68; 6HR MAX TEMP:  73;

$$

WIZ003>005-009-010-017-018-200100-
NORTH CENTRAL WISCONSIN

CITY           SKY/WX    TMP DP  RH WIND       PRES   REMARKS
WOODRUFF       CLOUDY    65  54  67 S14G21    29.75F
6HR MIN TEMP:  63; 6HR MAX TEMP:  71;

RHINELANDER    CLOUDY    65  52  62 S12G23    29.78F
6HR MIN TEMP:  63; 6HR MAX TEMP:  68;

EAGLE RIVER    CLOUDY    64  51  61 SW12G17   29.75F
6HR MIN TEMP:  64; 6HR MAX TEMP:  68;

LAND O LAKES   CLOUDY    65  53  65 S14G21    29.73F
6HR MIN TEMP:  63; 6HR MAX TEMP:  67;

PHILLIPS       CLOUDY    65  56  73 S10       29.74S
6HR MIN TEMP:  63; 6HR MAX TEMP:  69;

TOMAHAWK       CLOUDY    64  54  68 S5        29.78F
6HR MIN TEMP:  63; 6HR MAX TEMP:  69;

MEDFORD        CLOUDY    66  55  69 S10       29.79F
6HR MIN TEMP:  64; 6HR MAX TEMP:  69;

MERRILL        CLOUDY    67  55  66 SW7       29.80R
6HR MIN TEMP:  66; 6HR MAX TEMP:  70;

$$

WIZ029-030-035-036-043>047-200100-
CENTRAL WISCONSIN

CITY           SKY/WX    TMP DP  RH WIND       PRES   REMARKS
WAUSAU         MOCLDY    68  53  58 SW12G24   29.79R
6HR MIN TEMP:  67; 6HR MAX TEMP:  71;

MOSINEE        PTCLDY    66  55  68 S12       29.81R
MARSHFIELD     PTCLDY    68  54  60 SW9       29.80R
6HR MIN TEMP:  68; 6HR MAX TEMP:  73;

STEVENS POINT  MOCLDY    67  50  54 SW17G28   29.81S
6HR MIN TEMP:  67; 6HR MAX TEMP:  71;

WAUPACA        MOCLDY    70  51  50 S14       29.81F
6HR MIN TEMP:  70; 6HR MAX TEMP:  74;

WAUTOMA        PTCLDY    70  52  52 S15G23    29.83F
6HR MIN TEMP:  70; 6HR MAX TEMP:  75;

WISC RAPIDS    PTCLDY    69  52  54 S15G31    29.81S
6HR MIN TEMP:  69; 6HR MAX TEMP:  73;

CAMP DOUGLAS   CLEAR     70  55  58 S9G21     29.80R
6HR MIN TEMP:  70; 6HR MAX TEMP:  74;

$$

WIZ011>013-019>022-031-037>040-048>050-200100-
NORTHEAST WISCONSIN

CITY           SKY/WX    TMP DP  RH WIND       PRES   REMARKS
ANTIGO         CLOUDY    64  53  67 SW13G20   29.81R
6HR MIN TEMP:  63; 6HR MAX TEMP:  69;

STURGEON BAY   MOCLDY    61  52  72 S23G35    29.83F
6HR MIN TEMP:  61; 6HR MAX TEMP:  64;

GREEN BAY      PTCLDY    68  50  52 S13       29.82F
6HR MIN TEMP:  68; 6HR MAX TEMP:  73;

MANITOWOC      MOCLDY    62  53  72 S21G28    29.87F
6HR MIN TEMP:  62; 6HR MAX TEMP:  65;

APPLETON       MOCLDY    68  48  49 S16G23    29.84F
CLINTONVILLE   MOCLDY    68  50  52 S15G25    29.80F
OSHKOSH        PTCLDY    68  51  54 S16G24    29.84F
6HR MIN TEMP:  68; 6HR MAX TEMP:  73;

$$

WIZ032>034-041-042-053>061-200100-
SOUTHWEST WISCONSIN

CITY           SKY/WX    TMP DP  RH WIND       PRES   REMARKS
LA CROSSE      PTCLDY    72  57  59 S9        29.78R
6HR MIN TEMP:  72; 6HR MAX TEMP:  77;

SPARTA         CLEAR     70  52  52 S8        29.79F
VIROQUA        FAIR      68  54  59 S10G21    29.81S
6HR MIN TEMP:  68; 6HR MAX TEMP:  73;

BOSCOBEL       PTCLDY    73  53  49 S15G26    29.83F
6HR MIN TEMP:  73; 6HR MAX TEMP:  77;

PRAIRIE DU CHI PTCLDY    71  54  53 SE7       29.82F
6HR MIN TEMP:  71; 6HR MAX TEMP:  75;

PLATTEVILLE    FAIR      69  54  57 S12G17    29.90F
6HR MIN TEMP:  69; 6HR MAX TEMP:  74;

$$

WIZ056-057-062-063-064-067-068-200100-
SOUTH CENTRAL WISCONSIN

CITY           SKY/WX    TMP DP  RH WIND       PRES   REMARKS
BARABOO/DELLS  CLEAR     68  49  50 S17G26    29.83F
6HR MIN TEMP:  68; 6HR MAX TEMP:  74;

LONE ROCK      CLEAR     74  52  46 S15       29.85F
6HR MIN TEMP:  73; 6HR MAX TEMP:  78;

WATERTOWN      PTCLDY    67  50  54 S9        29.90F
6HR MIN TEMP:  67; 6HR MAX TEMP:  73;

MADISON        MOCLDY    71  51  49 S18G24    29.89F
6HR MIN TEMP:  71; 6HR MAX TEMP:  74;

MIDDLETON      FAIR      70  49  47 S12G18    29.88F
6HR MIN TEMP:  70; 6HR MAX TEMP:  75;

MONROE         CLEAR     68  54  60 S14       29.91F
JANESVILLE     CLEAR     72  48  43 S13G18    29.93F
$$

WIZ051-052-058>065-066-070>072-200100-
SOUTHEAST WISCONSIN

CITY           SKY/WX    TMP DP  RH WIND       PRES   REMARKS
MILWAUKEE      MOCLDY    65  51  60 S10       29.95F
6HR MIN TEMP:  65; 6HR MAX TEMP:  73;

WAUKESHA       PTCLDY    66  48  52 S9        29.95F
MILWAUKEE/TIMM CLEAR     70  45  40 S10       29.95F
RACINE         PTCLDY    64  52  64 S8        29.98F
6HR MIN TEMP:  64; 6HR MAX TEMP:  70;

BURLINGTON     PTCLDY    63  48  59 S6        29.96S
6HR MIN TEMP:  63; 6HR MAX TEMP:  73;

KENOSHA        PTCLDY    67  46  47 S9        29.97F
6HR MIN TEMP:  67; 6HR MAX TEMP:  73;

FOND DU LAC    PTCLDY    68  49  50 S15G24    29.86F
6HR MIN TEMP:  68; 6HR MAX TEMP:  73;

SHEBOYGAN      PTCLDY    64  51  62 S20G28    29.89F
6HR MIN TEMP:  63; 6HR MAX TEMP:  71;

WEST BEND      PTCLDY    66  46  48 S9        29.91F
JUNEAU         PTCLDY    67  50  53 S15       29.90F
6HR MIN TEMP:  67; 6HR MAX TEMP:  72;

$$

LSZ147-162-200100-
LAKE SUPERIOR

STATION/POSITION TIME  TEMP    WIND        PRES    WAVE
                       AIR SEA DIR/SP/G            HT/PER
                 (UTC) (F)     (DEG/KT/KT) (MB)    (FT/S)
W MID LAKE BUOY  2350   54 47  220/  8/ 10 1003.4F   2/ 4
DEVILS ISLAND    0000   62     220/  8/  9 1003.1F
PORT WING        2300   64     220/  4/  8 1004.1R
SAXON HARBOR     2320   70     200/ 10/ 20 1003.7F
$$

LMZ867-665-643>646-200100-
LAKE MICHIGAN

STATION/POSITION TIME  TEMP    WIND        PRES    WAVE
                       AIR SEA DIR/SP/G            HT/PER
                 (UTC) (F)     (DEG/KT/KT) (MB)    (FT/S)
N MID LAKE BUOY  2350   62 58  190/ 27/ 35 1009.7F   9/ 7
NORTHPORT PIER   2300   61     160/ 11/ 25 1010.5F
SISTER BAY       2312          190/ 27/ 37   N/A
KEWAUNEE LAKESHO 2300   59     180/ 19/ 23 1011.3F
SHEBOYGAN LAKESH 0000   60 54  180/ 25/ 26 1012.3F
PORT WASHINGTON  2340   61     200/  7/ 13 1013.9F
ATWATER BUOY     0000   61     160/ 14/ 17 1014.8F
MILWAUKEE LAKESH 0000   62     160/ 13/ 14   N/A
S MID LAKE BUOY  2350   67 64  160/ 16/ 19 1015.4F   2/ 4
KENOSHA   LAKESH 0000   63     180/  9/ 13 1014.6F
$$

TC  - TEMPERATURE IN CELSIUS
VSB - VISIBILITY IN STATUTE MILES
WCI - WIND CHILL INDEX
HX  - HEAT INDEX



USA.gov is the U.S. government's official web portal to all federal, state and local government web resources and services.